date,City,No. Stations,Air Quality,Index Value,Prominent Pollutant
2020-02-05,Kozhikode,1.0,Satisfactory,82,PM10
2020-02-06,Kozhikode,1.0,Satisfactory,99,PM2.5
2020-02-07,Kozhikode,1.0,Satisfactory,75,PM10
2020-02-08,Kozhikode,1.0,Satisfactory,74,CO
2020-02-09,Kozhikode,1.0,Satisfactory,59,PM10
2020-02-10,Kozhikode,1.0,Satisfactory,79,CO
2020-02-11,Kozhikode,1.0,Satisfactory,67,CO
2020-02-12,Kozhikode,1.0,Satisfactory,80,PM10
2020-02-13,Kozhikode,1.0,Satisfactory,76,PM10
2020-02-14,Kozhikode,1.0,Satisfactory,84,PM10
2020-02-15,Kozhikode,1.0,Satisfactory,90,PM10
2020-02-16,Kozhikode,1.0,Satisfactory,93,PM10
2020-02-17,Kozhikode,1.0,Moderate,107,PM2.5
2020-02-18,Kozhikode,1.0,Moderate,104,PM2.5
2020-02-19,Kozhikode,1.0,Satisfactory,90,PM10
2020-02-20,Kozhikode,1.0,Moderate,123,PM2.5
2020-02-21,Kozhikode,1.0,Moderate,102,PM10
2020-02-22,Kozhikode,1.0,Satisfactory,97,PM10
2020-02-23,Kozhikode,1.0,Satisfactory,87,PM10
2020-02-24,Kozhikode,1.0,Satisfactory,91,PM10
2020-02-25,Kozhikode,1.0,Satisfactory,83,PM10
2020-02-26,Kozhikode,1.0,Satisfactory,80,PM10
2020-02-27,Kozhikode,1.0,Satisfactory,66,PM10
2020-02-28,Kozhikode,1.0,Satisfactory,75,PM2.5
2020-02-29,Kozhikode,1.0,Satisfactory,77,PM10
2020-03-01,Kozhikode,1.0,Satisfactory,61,PM10
2020-03-02,Kozhikode,1.0,Satisfactory,67,PM10
2020-03-03,Kozhikode,1.0,Satisfactory,80,CO
2020-03-04,Kozhikode,1.0,Satisfactory,64,PM10
2020-03-05,Kozhikode,1.0,Satisfactory,64,PM10
2020-03-06,Kozhikode,1.0,Satisfactory,51,PM10
2020-03-07,Kozhikode,1.0,Satisfactory,66,CO
2020-03-08,Kozhikode,1.0,Satisfactory,52,PM10
2020-03-09,Kozhikode,1.0,Satisfactory,64,CO
2020-03-10,Kozhikode,1.0,Satisfactory,58,PM10
2020-03-11,Kozhikode,1.0,Satisfactory,64,PM10
2020-03-12,Kozhikode,1.0,Good,49,PM10
2020-03-13,Kozhikode,1.0,Satisfactory,52,PM10
2020-03-14,Kozhikode,1.0,Satisfactory,60,PM10
2020-03-15,Kozhikode,1.0,Satisfactory,59,PM10
2020-03-16,Kozhikode,1.0,Satisfactory,62,PM10
2020-03-17,Kozhikode,1.0,Satisfactory,66,PM10
2020-03-18,Kozhikode,1.0,Satisfactory,70,PM10
2020-03-19,Kozhikode,1.0,Satisfactory,64,PM10
2020-03-20,Kozhikode,1.0,Satisfactory,60,PM10
2020-03-21,Kozhikode,1.0,Satisfactory,54,CO
2020-03-22,Kozhikode,1.0,Good,42,PM10
2020-03-23,Kozhikode,1.0,Good,48,PM10
2020-03-25,Kozhikode,1.0,Good,48,PM10
2020-03-26,Kozhikode,1.0,Good,47,PM2.5
2020-03-27,Kozhikode,1.0,Good,49,PM10
2020-03-28,Kozhikode,1.0,Satisfactory,55,PM2.5
2020-03-29,Kozhikode,1.0,Satisfactory,53,PM2.5
2020-03-30,Kozhikode,1.0,Satisfactory,52,PM2.5
2020-03-31,Kozhikode,1.0,Satisfactory,53,PM2.5
2020-04-01,Kozhikode,1.0,Satisfactory,52,PM2.5
2020-04-02,Kozhikode,1.0,Good,49,PM2.5
2020-04-03,Kozhikode,1.0,Satisfactory,54,PM2.5
2020-04-04,Kozhikode,1.0,Good,41,PM2.5
2020-04-05,Kozhikode,1.0,Good,46,PM2.5
2020-04-06,Kozhikode,1.0,Good,41,CO
2020-04-07,Kozhikode,1.0,Good,34,PM2.5
2020-04-08,Kozhikode,1.0,Good,48,PM10
2020-04-09,Kozhikode,1.0,Good,50,PM10
2020-04-10,Kozhikode,1.0,Good,46,CO
2020-04-11,Kozhikode,1.0,Satisfactory,53,PM2.5
2020-04-12,Kozhikode,1.0,Good,47,PM2.5
2020-04-13,Kozhikode,1.0,Good,47,PM2.5
2020-04-14,Kozhikode,1.0,Satisfactory,58,PM2.5
2020-04-15,Kozhikode,1.0,Satisfactory,52,PM10
2020-04-16,Kozhikode,1.0,Good,42,PM2.5
2020-04-17,Kozhikode,1.0,Good,50,PM2.5
2020-04-18,Kozhikode,1.0,Good,47,PM2.5
2020-04-19,Kozhikode,1.0,Good,46,PM2.5
2020-04-20,Kozhikode,1.0,Satisfactory,55,PM2.5
2020-04-21,Kozhikode,1.0,Good,42,PM2.5
2020-04-22,Kozhikode,1.0,Good,45,PM10
2020-04-23,Kozhikode,1.0,Good,34,PM2.5
2020-04-24,Kozhikode,1.0,Good,43,PM2.5
2020-04-25,Kozhikode,1.0,Satisfactory,52,PM10
2020-04-26,Kozhikode,1.0,Good,46,PM10
2020-04-27,Kozhikode,1.0,Good,34,PM2.5
2020-04-28,Kozhikode,1.0,Good,49,PM10
2020-04-29,Kozhikode,1.0,Good,33,PM10
2020-04-30,Kozhikode,1.0,Good,50,PM2.5
2020-05-01,Kozhikode,1.0,Good,40,PM10
2020-05-02,Kozhikode,1.0,Good,34,PM10
2020-05-03,Kozhikode,1.0,Good,33,PM2.5
2020-05-04,Kozhikode,1.0,Good,41,PM10
2020-05-05,Kozhikode,1.0,Good,48,PM2.5
2020-05-06,Kozhikode,1.0,Good,43,PM2.5
2020-05-07,Kozhikode,1.0,Good,38,PM2.5
2020-05-08,Kozhikode,1.0,Good,32,PM2.5
2020-05-09,Kozhikode,1.0,Good,33,PM10
2020-05-10,Kozhikode,1.0,Good,38,PM10
2020-05-11,Kozhikode,1.0,Good,47,PM10
2020-05-12,Kozhikode,1.0,Satisfactory,61,PM2.5
2020-05-13,Kozhikode,1.0,Good,42,PM2.5
2020-05-14,Kozhikode,1.0,Good,36,PM10
2020-05-15,Kozhikode,1.0,Good,47,PM10
2020-05-16,Kozhikode,1.0,Good,28,PM2.5
2020-05-17,Kozhikode,1.0,Good,33,PM10
2020-05-18,Kozhikode,1.0,Good,28,PM2.5
2020-05-19,Kozhikode,1.0,Satisfactory,52,PM10
2020-05-20,Kozhikode,1.0,Good,47,PM10
2020-05-21,Kozhikode,1.0,Good,31,PM10
2020-05-22,Kozhikode,1.0,Good,32,CO
2020-05-23,Kozhikode,1.0,Good,44,PM10
2020-05-24,Kozhikode,1.0,Good,40,PM10
2020-05-25,Kozhikode,1.0,Good,39,PM10
2020-05-26,Kozhikode,1.0,Good,42,PM10
2020-05-27,Kozhikode,1.0,Good,46,PM10
2020-05-28,Kozhikode,1.0,Good,44,PM10
2020-05-29,Kozhikode,1.0,Good,44,CO
2020-05-30,Kozhikode,1.0,Good,37,CO
2020-05-31,Kozhikode,1.0,Good,20,PM10
2020-06-01,Kozhikode,1.0,Good,26,CO
2020-06-02,Kozhikode,1.0,Good,24,PM2.5
2020-06-04,Kozhikode,1.0,Good,37,PM2.5
2020-06-05,Kozhikode,1.0,Good,36,CO
2020-06-06,Kozhikode,1.0,Good,36,PM2.5
2020-06-07,Kozhikode,1.0,Good,19,PM2.5
2020-06-08,Kozhikode,1.0,Good,34,PM2.5
2020-06-09,Kozhikode,1.0,Good,36,PM10
2020-06-10,Kozhikode,1.0,Good,33,PM2.5
2020-06-12,Kozhikode,1.0,Good,33,PM10
2020-06-13,Kozhikode,1.0,Good,29,PM10
2020-06-14,Kozhikode,1.0,Good,20,PM2.5
2020-06-15,Kozhikode,1.0,Good,40,CO
2020-06-16,Kozhikode,1.0,Good,31,CO
2020-06-17,Kozhikode,1.0,Good,39,CO
2020-06-18,Kozhikode,1.0,Good,39,PM10
2020-06-19,Kozhikode,1.0,Good,47,PM10
2020-06-20,Kozhikode,1.0,Good,36,PM10
2020-06-21,Kozhikode,1.0,Good,22,PM10
2020-06-22,Kozhikode,1.0,Good,27,CO
2020-06-23,Kozhikode,1.0,Good,37,PM10
2020-06-24,Kozhikode,1.0,Good,38,PM10
2020-06-25,Kozhikode,1.0,Good,34,PM10
2020-06-26,Kozhikode,1.0,Good,23,PM10
2020-06-27,Kozhikode,1.0,Good,24,PM10
2020-06-28,Kozhikode,1.0,Good,18,PM10
2020-06-29,Kozhikode,1.0,Good,34,CO
2020-06-30,Kozhikode,1.0,Good,21,CO
2020-07-04,Kozhikode,1.0,Good,35,CO
2020-07-05,Kozhikode,1.0,Good,28,PM10
2020-07-06,Kozhikode,1.0,Good,36,PM10
2020-07-07,Kozhikode,1.0,Good,34,CO
2020-07-08,Kozhikode,1.0,Good,21,PM10
2020-07-09,Kozhikode,1.0,Good,34,PM10
2020-07-11,Kozhikode,1.0,Good,19,CO
2020-07-14,Kozhikode,1.0,Good,11,PM10
2020-07-16,Kozhikode,1.0,Good,18,PM10
2020-07-17,Kozhikode,1.0,Good,19,PM10
2020-07-18,Kozhikode,1.0,Good,25,PM10
2020-07-19,Kozhikode,1.0,Good,24,PM10
2020-07-20,Kozhikode,1.0,Good,25,PM2.5
2020-07-21,Kozhikode,1.0,Good,21,PM2.5
2020-07-26,Kozhikode,1.0,Good,34,PM10
2020-07-27,Kozhikode,1.0,Good,31,PM10
2020-07-28,Kozhikode,1.0,Good,12,PM2.5
2020-07-29,Kozhikode,1.0,Good,10,PM2.5
2020-07-30,Kozhikode,1.0,Good,9,PM10
2020-08-02,Kozhikode,1.0,Good,19,PM10
2020-08-03,Kozhikode,1.0,Good,24,PM10
2020-08-04,Kozhikode,1.0,Good,47,PM10
2020-08-06,Kozhikode,1.0,Good,16,PM10
2020-08-07,Kozhikode,1.0,Good,10,PM10
2020-08-09,Kozhikode,1.0,Good,14,PM10
2020-08-10,Kozhikode,1.0,Good,23,CO
2020-08-11,Kozhikode,1.0,Good,16,CO
2020-08-12,Kozhikode,1.0,Good,14,CO
2020-08-14,Kozhikode,1.0,Good,19,CO
2020-08-15,Kozhikode,1.0,Good,8,NO2
2020-08-17,Kozhikode,1.0,Good,33,CO
2020-08-18,Kozhikode,1.0,Good,15,PM2.5
2020-08-19,Kozhikode,1.0,Satisfactory,57,PM10
2020-08-20,Kozhikode,1.0,Good,27,PM10
2020-08-21,Kozhikode,1.0,Good,44,PM10
2020-08-22,Kozhikode,1.0,Good,25,PM10
2020-08-25,Kozhikode,1.0,Good,26,CO
2020-08-26,Kozhikode,1.0,Good,22,PM10
2020-08-28,Kozhikode,1.0,Good,21,CO
2020-08-29,Kozhikode,1.0,Good,31,CO
2020-08-30,Kozhikode,1.0,Good,7,NO2
2020-09-03,Kozhikode,1.0,Good,11,NO2
2020-09-04,Kozhikode,1.0,Good,18,PM10
2020-09-05,Kozhikode,1.0,Good,23,CO
2020-09-06,Kozhikode,1.0,Good,9,NO2
2020-09-07,Kozhikode,1.0,Good,20,CO
2020-09-08,Kozhikode,1.0,Good,18,CO
2020-09-09,Kozhikode,1.0,Good,19,PM10
2020-09-12,Kozhikode,1.0,Good,26,CO
2020-09-13,Kozhikode,1.0,Good,12,PM10
2020-09-14,Kozhikode,1.0,Good,40,CO
2020-09-16,Kozhikode,1.0,Good,23,PM10
2020-09-17,Kozhikode,1.0,Good,16,PM10
2020-09-18,Kozhikode,1.0,Good,10,PM10
2020-09-19,Kozhikode,1.0,Satisfactory,52,CO
2020-09-20,Kozhikode,1.0,Good,11,PM10
2020-09-21,Kozhikode,1.0,Good,17,CO
2020-09-22,Kozhikode,1.0,Good,31,CO
2020-09-23,Kozhikode,1.0,Good,26,CO
2020-09-24,Kozhikode,1.0,Good,20,PM10
2020-09-25,Kozhikode,1.0,Good,24,PM10
2020-09-26,Kozhikode,1.0,Good,29,PM10
2020-09-27,Kozhikode,1.0,Good,20,PM10
2020-09-28,Kozhikode,1.0,Good,35,CO
2020-09-29,Kozhikode,1.0,Good,27,CO
2020-09-30,Kozhikode,1.0,Good,28,CO
2020-10-01,Kozhikode,1.0,Good,29,CO
2020-10-02,Kozhikode,1.0,Good,25,CO
2020-10-03,Kozhikode,1.0,Good,18,CO
2020-10-04,Kozhikode,1.0,Good,19,PM10
2020-10-05,Kozhikode,1.0,Good,25,PM10
2020-10-06,Kozhikode,1.0,Good,30,CO
2020-10-07,Kozhikode,1.0,Good,40,CO
2020-10-08,Kozhikode,1.0,Good,38,CO
2020-10-09,Kozhikode,1.0,Good,28,CO
2020-10-10,Kozhikode,1.0,Good,30,CO
2020-10-11,Kozhikode,1.0,Good,35,PM10
2020-10-12,Kozhikode,1.0,Good,48,CO
2020-10-13,Kozhikode,1.0,Good,40,CO
2020-10-14,Kozhikode,1.0,Good,34,PM10
2020-10-15,Kozhikode,1.0,Good,30,CO
2020-10-19,Kozhikode,1.0,Satisfactory,59,CO
2020-10-20,Kozhikode,1.0,Good,42,PM10
2020-10-21,Kozhikode,1.0,Good,38,PM10
2020-10-23,Kozhikode,1.0,Good,48,PM10
2020-10-24,Kozhikode,1.0,Satisfactory,55,PM10
2020-10-25,Kozhikode,1.0,Good,50,PM10
2020-10-26,Kozhikode,1.0,Good,42,PM10
2020-10-27,Kozhikode,1.0,Good,34,PM10
2020-10-28,Kozhikode,1.0,Satisfactory,51,CO
2020-10-29,Kozhikode,1.0,Satisfactory,61,PM10
2020-10-30,Kozhikode,1.0,Satisfactory,78,PM10
2020-10-31,Kozhikode,1.0,Satisfactory,86,PM10
2020-11-01,Kozhikode,1.0,Satisfactory,76,PM10
2020-11-02,Kozhikode,1.0,Satisfactory,79,PM10
2020-11-03,Kozhikode,1.0,Satisfactory,76,PM10
2020-11-04,Kozhikode,1.0,Satisfactory,100,PM10
2020-11-05,Kozhikode,1.0,Satisfactory,76,PM10
2020-11-06,Kozhikode,1.0,Good,45,PM10
2020-11-07,Kozhikode,1.0,Satisfactory,64,CO
2020-11-08,Kozhikode,1.0,Satisfactory,52,PM10
2020-11-09,Kozhikode,1.0,Satisfactory,61,CO
2020-11-10,Kozhikode,1.0,Satisfactory,78,PM10
2020-11-11,Kozhikode,1.0,Satisfactory,100,PM10
2020-11-12,Kozhikode,1.0,Satisfactory,92,PM10
2020-11-13,Kozhikode,1.0,Satisfactory,86,PM10
2020-11-14,Kozhikode,1.0,Good,50,CO
2020-11-15,Kozhikode,1.0,Satisfactory,56,PM10
2020-11-16,Kozhikode,1.0,Satisfactory,68,PM10
2020-11-17,Kozhikode,1.0,Good,46,PM10
2020-11-18,Kozhikode,1.0,Good,43,CO
2020-11-19,Kozhikode,1.0,Satisfactory,63,PM10
2020-11-20,Kozhikode,1.0,Satisfactory,60,PM10
2020-11-21,Kozhikode,1.0,Good,49,PM10
2020-11-22,Kozhikode,1.0,Good,50,PM10
2020-11-23,Kozhikode,1.0,Satisfactory,73,PM10
2020-11-24,Kozhikode,1.0,Satisfactory,71,PM10
2020-11-25,Kozhikode,1.0,Satisfactory,81,PM10
2020-11-26,Kozhikode,1.0,Satisfactory,70,PM10
2020-11-27,Kozhikode,1.0,Satisfactory,74,PM10
2020-11-28,Kozhikode,1.0,Good,49,PM10
2020-11-29,Kozhikode,1.0,Satisfactory,58,PM10
2020-11-30,Kozhikode,1.0,Satisfactory,53,CO
2020-12-01,Kozhikode,1.0,Satisfactory,58,CO
2020-12-02,Kozhikode,1.0,Satisfactory,68,CO
2020-12-03,Kozhikode,1.0,Moderate,116,PM2.5
2020-12-04,Kozhikode,1.0,Satisfactory,100,PM2.5
2020-12-05,Kozhikode,1.0,Satisfactory,89,PM2.5
2020-12-06,Kozhikode,1.0,Good,45,PM10
2020-12-07,Kozhikode,1.0,Satisfactory,59,CO
2020-12-08,Kozhikode,1.0,Satisfactory,60,CO
2020-12-09,Kozhikode,1.0,Satisfactory,57,CO
2020-12-10,Kozhikode,1.0,Satisfactory,53,CO
2020-12-11,Kozhikode,1.0,Satisfactory,65,CO
2020-12-12,Kozhikode,1.0,Satisfactory,62,CO
2020-12-13,Kozhikode,1.0,Satisfactory,55,PM10
2020-12-14,Kozhikode,1.0,Satisfactory,64,PM10
2020-12-15,Kozhikode,1.0,Satisfactory,85,PM10
2020-12-16,Kozhikode,1.0,Satisfactory,81,PM10
2020-12-17,Kozhikode,1.0,Satisfactory,82,CO
2020-12-18,Kozhikode,1.0,Satisfactory,77,PM10
2020-12-19,Kozhikode,1.0,Satisfactory,79,PM10
2020-12-20,Kozhikode,1.0,Satisfactory,72,PM10
2020-12-21,Kozhikode,1.0,Satisfactory,92,PM10
2020-12-22,Kozhikode,1.0,Satisfactory,100,PM10
2020-12-23,Kozhikode,1.0,Moderate,106,PM10
2020-12-24,Kozhikode,1.0,Satisfactory,87,PM10
2020-12-25,Kozhikode,1.0,Satisfactory,72,PM2.5
2020-12-26,Kozhikode,1.0,Satisfactory,70,CO
2020-12-27,Kozhikode,1.0,Satisfactory,76,PM2.5
2020-12-28,Kozhikode,1.0,Satisfactory,90,CO
2020-12-29,Kozhikode,1.0,Satisfactory,96,CO
2020-12-30,Kozhikode,1.0,Satisfactory,90,PM2.5
2020-12-31,Kozhikode,1.0,Satisfactory,68,PM2.5
2021-01-01,Kozhikode,1.0,Satisfactory,68,CO
2021-01-02,Kozhikode,1.0,Satisfactory,83,PM2.5
2021-01-03,Kozhikode,1.0,Satisfactory,89,PM2.5
2021-01-04,Kozhikode,1.0,Satisfactory,83,CO
2021-01-05,Kozhikode,1.0,Satisfactory,75,CO
2021-01-06,Kozhikode,1.0,Satisfactory,70,CO
2021-01-07,Kozhikode,1.0,Satisfactory,54,CO
2021-01-08,Kozhikode,1.0,Satisfactory,62,CO
2021-01-09,Kozhikode,1.0,Satisfactory,73,CO
2021-01-10,Kozhikode,1.0,Good,39,CO
2021-01-11,Kozhikode,1.0,Satisfactory,82,CO
2021-01-12,Kozhikode,1.0,Satisfactory,88,CO
2021-01-13,Kozhikode,1.0,Satisfactory,86,CO
2021-01-14,Kozhikode,1.0,Satisfactory,86,CO
2021-01-15,Kozhikode,1.0,Satisfactory,61,CO
2021-01-16,Kozhikode,1.0,Moderate,102,CO
2021-01-20,Kozhikode,1.0,Satisfactory,84,PM10
2021-01-21,Kozhikode,1.0,Satisfactory,80,PM10
2021-01-22,Kozhikode,1.0,Satisfactory,89,PM10
2021-01-23,Kozhikode,1.0,Satisfactory,93,PM10
2021-01-24,Kozhikode,1.0,Very Poor,326,PM10
2021-01-25,Kozhikode,1.0,Severe,417,PM10
2021-01-26,Kozhikode,1.0,Satisfactory,76,PM10
2021-01-27,Kozhikode,1.0,Satisfactory,67,PM10
2021-01-28,Kozhikode,1.0,Satisfactory,70,PM10
2021-01-29,Kozhikode,1.0,Satisfactory,78,PM10
2021-01-30,Kozhikode,1.0,Satisfactory,77,PM10
2021-01-31,Kozhikode,1.0,Satisfactory,79,PM10
2021-02-01,Kozhikode,1.0,Satisfactory,70,PM10
2021-02-02,Kozhikode,1.0,Satisfactory,82,PM10
2021-02-03,Kozhikode,1.0,Satisfactory,75,PM10
2021-02-04,Kozhikode,1.0,Satisfactory,77,PM10
2021-02-05,Kozhikode,1.0,Satisfactory,81,PM10
2021-02-06,Kozhikode,1.0,Satisfactory,78,PM10
2021-02-07,Kozhikode,1.0,Satisfactory,81,PM10
2021-02-08,Kozhikode,1.0,Satisfactory,77,PM10
2021-02-09,Kozhikode,1.0,Satisfactory,85,PM10
2021-02-10,Kozhikode,1.0,Satisfactory,89,PM10
2021-02-11,Kozhikode,1.0,Satisfactory,83,PM10
2021-02-12,Kozhikode,1.0,Satisfactory,89,PM10
2021-02-13,Kozhikode,1.0,Satisfactory,90,PM10
2021-02-14,Kozhikode,1.0,Satisfactory,81,PM10
2021-02-15,Kozhikode,1.0,Satisfactory,94,PM10
2021-02-16,Kozhikode,1.0,Satisfactory,83,PM10
2021-02-17,Kozhikode,1.0,Satisfactory,87,PM10
2021-02-18,Kozhikode,1.0,Satisfactory,87,PM10
2021-02-19,Kozhikode,1.0,Satisfactory,86,PM10
2021-02-20,Kozhikode,1.0,Satisfactory,85,PM10
2021-02-21,Kozhikode,1.0,Satisfactory,87,PM10
2021-02-22,Kozhikode,1.0,Satisfactory,80,PM10
2021-02-23,Kozhikode,1.0,Satisfactory,87,PM10
2021-02-24,Kozhikode,1.0,Satisfactory,80,PM10
2021-02-25,Kozhikode,1.0,Satisfactory,85,PM10
2021-02-26,Kozhikode,1.0,Satisfactory,83,PM10
2021-02-27,Kozhikode,1.0,Satisfactory,78,PM10
2021-02-28,Kozhikode,1.0,Satisfactory,85,PM10
2021-03-01,Kozhikode,1.0,Satisfactory,81,PM10
2021-03-02,Kozhikode,1.0,Satisfactory,78,PM10
2021-03-03,Kozhikode,1.0,Satisfactory,83,PM10
2021-03-04,Kozhikode,1.0,Satisfactory,75,PM10
2021-03-05,Kozhikode,1.0,Satisfactory,81,PM10
2021-03-06,Kozhikode,1.0,Satisfactory,79,PM10
2021-03-07,Kozhikode,1.0,Satisfactory,80,PM10
2021-03-08,Kozhikode,1.0,Satisfactory,80,PM10
2021-03-09,Kozhikode,1.0,Satisfactory,80,PM10
2021-03-10,Kozhikode,1.0,Satisfactory,85,PM10
2021-03-11,Kozhikode,1.0,Satisfactory,84,PM10
2021-03-12,Kozhikode,1.0,Satisfactory,68,PM10
2021-03-13,Kozhikode,1.0,Satisfactory,71,PM10
2021-03-14,Kozhikode,1.0,Satisfactory,73,PM10
2021-03-15,Kozhikode,1.0,Satisfactory,71,PM10
2021-03-16,Kozhikode,1.0,Satisfactory,67,PM10
2021-03-17,Kozhikode,1.0,Satisfactory,78,PM10
2021-03-18,Kozhikode,1.0,Satisfactory,74,PM10
2021-03-19,Kozhikode,1.0,Satisfactory,72,PM10
2021-03-20,Kozhikode,1.0,Satisfactory,74,PM10
2021-03-21,Kozhikode,1.0,Satisfactory,76,PM10
2021-03-22,Kozhikode,1.0,Satisfactory,73,PM10
2021-03-23,Kozhikode,1.0,Satisfactory,72,PM10
2021-03-24,Kozhikode,1.0,Satisfactory,74,PM10
2021-03-25,Kozhikode,1.0,Satisfactory,76,PM10
2021-03-26,Kozhikode,1.0,Satisfactory,83,PM10
2021-03-27,Kozhikode,1.0,Satisfactory,86,PM10
2021-03-28,Kozhikode,1.0,Satisfactory,80,PM10
2021-03-29,Kozhikode,1.0,Satisfactory,75,PM10
2021-03-30,Kozhikode,1.0,Satisfactory,76,PM10
2021-03-31,Kozhikode,1.0,Satisfactory,78,PM10
2021-04-01,Kozhikode,1.0,Satisfactory,78,PM10
2021-04-02,Kozhikode,1.0,Satisfactory,77,PM10
2021-04-03,Kozhikode,1.0,Satisfactory,80,PM10
2021-04-04,Kozhikode,1.0,Satisfactory,74,PM10
2021-04-05,Kozhikode,1.0,Satisfactory,86,PM10
2021-04-06,Kozhikode,1.0,Satisfactory,78,PM10
2021-04-07,Kozhikode,1.0,Satisfactory,85,PM10
2021-04-08,Kozhikode,1.0,Satisfactory,80,PM10
2021-04-09,Kozhikode,1.0,Satisfactory,83,PM10
2021-04-10,Kozhikode,1.0,Satisfactory,82,PM10
2021-04-11,Kozhikode,1.0,Satisfactory,81,PM10
2021-04-12,Kozhikode,1.0,Satisfactory,86,PM10
2021-04-13,Kozhikode,1.0,Satisfactory,68,PM10
2021-04-14,Kozhikode,1.0,Satisfactory,70,PM10
2021-04-15,Kozhikode,1.0,Satisfactory,52,PM10
2021-04-16,Kozhikode,1.0,Satisfactory,60,CO
2021-04-17,Kozhikode,1.0,Satisfactory,56,PM10
2021-04-18,Kozhikode,1.0,Satisfactory,63,PM10
2021-04-21,Kozhikode,1.0,Satisfactory,57,PM10
2021-04-22,Kozhikode,1.0,Satisfactory,72,PM10
2021-04-23,Kozhikode,1.0,Satisfactory,77,PM10
2021-04-24,Kozhikode,1.0,Satisfactory,53,PM10
2021-04-25,Kozhikode,1.0,Satisfactory,51,PM10
2021-04-26,Kozhikode,1.0,Satisfactory,86,CO
2021-04-27,Kozhikode,1.0,Satisfactory,85,CO
2021-04-28,Kozhikode,1.0,Satisfactory,56,PM10
2021-04-29,Kozhikode,1.0,Satisfactory,76,CO
2021-04-30,Kozhikode,1.0,Satisfactory,59,PM10
2021-05-01,Kozhikode,1.0,Satisfactory,55,PM10
2021-05-02,Kozhikode,1.0,Satisfactory,64,PM10
2021-05-03,Kozhikode,1.0,Satisfactory,75,CO
2021-05-05,Kozhikode,1.0,Satisfactory,55,PM10
2021-05-06,Kozhikode,1.0,Satisfactory,59,PM10
2021-05-08,Kozhikode,1.0,Good,50,PM10
2021-05-09,Kozhikode,1.0,Good,44,PM10
2021-05-11,Kozhikode,1.0,Good,39,CO
2021-05-12,Kozhikode,1.0,Good,32,CO
2021-05-15,Kozhikode,1.0,Good,24,CO
2021-05-16,Kozhikode,1.0,Good,35,CO
2021-05-17,Kozhikode,1.0,Good,36,CO
2021-05-18,Kozhikode,1.0,Good,32,PM10
2021-05-19,Kozhikode,1.0,Good,37,CO
2021-05-20,Kozhikode,1.0,Good,29,CO
2021-05-21,Kozhikode,1.0,Good,42,CO
2021-05-22,Kozhikode,1.0,Good,32,CO
2021-05-23,Kozhikode,1.0,Good,38,CO
2021-05-24,Kozhikode,1.0,Good,45,PM10
2021-05-25,Kozhikode,1.0,Good,43,CO
2021-05-26,Kozhikode,1.0,Good,33,CO
2021-05-27,Kozhikode,1.0,Good,38,PM10
2021-05-28,Kozhikode,1.0,Good,41,CO
2021-05-29,Kozhikode,1.0,Good,32,PM10
2021-05-30,Kozhikode,1.0,Good,29,CO
2021-05-31,Kozhikode,1.0,Satisfactory,51,CO
2021-06-01,Kozhikode,1.0,Good,34,CO
2021-06-02,Kozhikode,1.0,Good,35,CO
2021-06-03,Kozhikode,1.0,Good,49,CO
2021-06-04,Kozhikode,1.0,Good,45,CO
2021-06-05,Kozhikode,1.0,Good,36,PM10
2021-06-06,Kozhikode,1.0,Good,29,PM10
2021-06-07,Kozhikode,1.0,Satisfactory,58,CO
2021-06-09,Kozhikode,1.0,Good,42,CO
2021-06-10,Kozhikode,1.0,Satisfactory,51,CO
2021-06-12,Kozhikode,1.0,Good,43,CO
2021-06-13,Kozhikode,1.0,Good,38,CO
2021-06-14,Kozhikode,1.0,Good,50,CO
2021-06-15,Kozhikode,1.0,Satisfactory,73,CO
2021-06-17,Kozhikode,1.0,Satisfactory,57,CO
2021-06-19,Kozhikode,1.0,Good,47,PM10
2021-06-20,Kozhikode,1.0,Good,41,PM10
2021-06-22,Kozhikode,1.0,Satisfactory,56,CO
2021-06-23,Kozhikode,1.0,Satisfactory,68,CO
2021-06-24,Kozhikode,1.0,Good,50,CO
2021-06-25,Kozhikode,1.0,Satisfactory,64,CO
2021-06-26,Kozhikode,1.0,Good,38,PM10
2021-06-27,Kozhikode,1.0,Good,46,CO
2021-06-28,Kozhikode,1.0,Good,46,CO
2021-06-29,Kozhikode,1.0,Good,38,CO
2021-06-30,Kozhikode,1.0,Satisfactory,54,CO
2021-07-01,Kozhikode,1.0,Good,44,CO
2021-07-02,Kozhikode,1.0,Satisfactory,65,CO
2021-07-03,Kozhikode,1.0,Good,45,CO
2021-07-04,Kozhikode,1.0,Good,28,CO
2021-07-05,Kozhikode,1.0,Satisfactory,55,CO
2021-07-06,Kozhikode,1.0,Good,33,CO
2021-07-07,Kozhikode,1.0,Satisfactory,70,CO
2021-07-08,Kozhikode,1.0,Good,49,CO
2021-07-09,Kozhikode,1.0,Satisfactory,56,CO
2021-07-10,Kozhikode,1.0,Good,27,CO
2021-07-11,Kozhikode,1.0,Good,35,CO
2021-07-12,Kozhikode,1.0,Satisfactory,72,CO
2021-07-13,Kozhikode,1.0,Satisfactory,69,CO
2021-07-14,Kozhikode,1.0,Satisfactory,63,CO
2021-07-15,Kozhikode,1.0,Satisfactory,84,CO
2021-07-16,Kozhikode,1.0,Satisfactory,55,CO
2021-07-17,Kozhikode,1.0,Good,49,CO
2021-07-18,Kozhikode,1.0,Good,45,CO
2021-07-19,Kozhikode,1.0,Satisfactory,72,CO
2021-07-20,Kozhikode,1.0,Good,33,PM10
2021-07-21,Kozhikode,1.0,Good,29,CO
2021-07-22,Kozhikode,1.0,Satisfactory,61,CO
2021-07-23,Kozhikode,1.0,Satisfactory,85,CO
2021-07-25,Kozhikode,1.0,Good,36,CO
2021-07-26,Kozhikode,1.0,Satisfactory,56,CO
2021-07-28,Kozhikode,1.0,Satisfactory,60,CO
2021-07-29,Kozhikode,1.0,Satisfactory,60,CO
2021-07-30,Kozhikode,1.0,Satisfactory,78,CO
2021-07-31,Kozhikode,1.0,Good,37,CO
2021-08-04,Kozhikode,1.0,Satisfactory,56,CO
2021-08-05,Kozhikode,1.0,Good,43,CO
2021-08-06,Kozhikode,1.0,Satisfactory,62,CO
2021-08-07,Kozhikode,1.0,Satisfactory,60,CO
2021-08-08,Kozhikode,1.0,Good,26,PM10
2021-08-09,Kozhikode,1.0,Satisfactory,64,CO
2021-08-10,Kozhikode,1.0,Good,33,CO
2021-08-11,Kozhikode,1.0,Good,26,CO
2021-08-12,Kozhikode,1.0,Good,29,PM10
2021-08-13,Kozhikode,1.0,Good,34,PM10
2021-08-14,Kozhikode,1.0,Good,32,PM10
2021-08-15,Kozhikode,1.0,Good,36,PM10
2021-08-16,Kozhikode,1.0,Satisfactory,59,CO
2021-08-17,Kozhikode,1.0,Good,39,CO
2021-08-18,Kozhikode,1.0,Good,39,CO
2021-08-19,Kozhikode,1.0,Satisfactory,74,CO
2021-08-20,Kozhikode,1.0,Satisfactory,55,CO
2021-08-21,Kozhikode,1.0,Good,39,PM10
2021-08-22,Kozhikode,1.0,Satisfactory,62,CO
2021-08-23,Kozhikode,1.0,Satisfactory,63,CO
2021-08-24,Kozhikode,1.0,Good,42,CO
2021-08-25,Kozhikode,1.0,Good,43,CO
2021-08-26,Kozhikode,1.0,Satisfactory,61,CO
2021-08-27,Kozhikode,1.0,Satisfactory,60,CO
2021-08-28,Kozhikode,1.0,Satisfactory,57,CO
2021-08-29,Kozhikode,1.0,Good,30,CO
2021-08-30,Kozhikode,1.0,Satisfactory,73,CO
2021-08-31,Kozhikode,1.0,Satisfactory,63,CO
2021-09-01,Kozhikode,1.0,Good,39,PM10
2021-09-03,Kozhikode,1.0,Satisfactory,64,CO
2021-09-04,Kozhikode,1.0,Good,40,PM10
2021-09-05,Kozhikode,1.0,Good,32,CO
2021-09-06,Kozhikode,1.0,Satisfactory,58,CO
2021-09-07,Kozhikode,1.0,Good,30,CO
2021-09-08,Kozhikode,1.0,Good,40,CO
2021-09-09,Kozhikode,1.0,Satisfactory,62,CO
2021-09-10,Kozhikode,1.0,Satisfactory,55,CO
2021-09-11,Kozhikode,1.0,Satisfactory,63,CO
2021-09-12,Kozhikode,1.0,Good,48,CO
2021-09-13,Kozhikode,1.0,Satisfactory,62,CO
2021-09-14,Kozhikode,1.0,Good,49,PM10
2021-09-15,Kozhikode,1.0,Good,43,PM10
2021-09-16,Kozhikode,1.0,Good,45,CO
2021-09-17,Kozhikode,1.0,Satisfactory,60,CO
2021-09-18,Kozhikode,1.0,Satisfactory,63,CO
2021-09-19,Kozhikode,1.0,Good,41,CO
2021-09-20,Kozhikode,1.0,Satisfactory,55,CO
2021-09-21,Kozhikode,1.0,Good,47,CO
2021-09-22,Kozhikode,1.0,Good,38,PM10
2021-09-23,Kozhikode,1.0,Satisfactory,68,CO
2021-09-24,Kozhikode,1.0,Good,49,CO
2021-09-25,Kozhikode,1.0,Satisfactory,53,CO
2021-09-26,Kozhikode,1.0,Satisfactory,57,CO
2021-09-27,Kozhikode,1.0,Good,41,CO
2021-09-28,Kozhikode,1.0,Satisfactory,67,CO
2021-09-29,Kozhikode,1.0,Satisfactory,52,CO
2021-09-30,Kozhikode,1.0,Satisfactory,63,CO
2021-10-01,Kozhikode,1.0,Satisfactory,52,CO
2021-10-02,Kozhikode,1.0,Good,48,CO
2021-10-03,Kozhikode,1.0,Good,30,PM10
2021-10-04,Kozhikode,1.0,Satisfactory,58,CO
2021-10-05,Kozhikode,1.0,Satisfactory,51,PM10
2021-10-07,Kozhikode,1.0,Good,43,PM10
2021-10-08,Kozhikode,1.0,Good,44,PM10
2021-10-09,Kozhikode,1.0,Good,50,CO
2021-10-10,Kozhikode,1.0,Good,37,CO
2021-10-12,Kozhikode,1.0,Good,44,CO
2021-10-13,Kozhikode,1.0,Satisfactory,57,CO
2021-10-14,Kozhikode,1.0,Good,47,CO
2021-10-15,Kozhikode,1.0,Good,49,PM10
2021-10-16,Kozhikode,1.0,Satisfactory,57,PM10
2021-10-19,Kozhikode,1.0,Satisfactory,55,PM10
2021-10-21,Kozhikode,1.0,Satisfactory,54,PM10
2021-10-22,Kozhikode,1.0,Good,49,PM10
2021-10-23,Kozhikode,1.0,Satisfactory,59,PM10
2021-10-24,Kozhikode,1.0,Good,48,PM10
2021-10-25,Kozhikode,1.0,Good,47,PM10
2021-10-26,Kozhikode,1.0,Satisfactory,52,PM10
2021-10-27,Kozhikode,1.0,Good,48,PM10
2021-10-28,Kozhikode,1.0,Satisfactory,59,PM10
2021-10-29,Kozhikode,1.0,Satisfactory,52,PM10
2021-10-30,Kozhikode,1.0,Good,50,PM10
2021-10-31,Kozhikode,1.0,Satisfactory,53,PM10